Location: Navajo Flats
(35.4008°N, 120.2808°W)
Time: 09:21:11
(UTC-08:00)

Envisat - Visible Passes

Search period start: 02 December 2020 00:00
Search period end: 12 December 2020 00:00
Orbit: 764 x 766 km, 98.1° (Epoch: 01 December)

Date Brightness Start Highest point End Pass type
(mag) Time Alt. Az. Time Alt. Az. Time Alt. Az.
02 Dec 5.0 05:07:46 10° NE 05:12:09 29° E 05:16:31 10° SSE visible
02 Dec 5.2 17:58:18 10° SSW 18:02:37 28° W 18:06:58 10° NW visible
03 Dec 6.2 04:33:11 10° ENE 04:35:03 12° E 04:36:55 10° ESE visible
03 Dec 3.0 06:09:25 10° N 06:14:27 64° WNW 06:19:27 10° SSW visible
03 Dec 3.5 17:20:40 10° S 17:25:42 68° WSW 17:30:46 10° NNW visible
04 Dec 3.8 05:32:42 10° NNE 05:37:40 53° E 05:42:36 10° S visible
04 Dec 6.0 18:25:17 10° SW 18:28:13 15° W 18:31:10 10° WNW visible
05 Dec 5.5 04:56:45 10° NE 05:00:42 22° E 05:04:37 10° SE visible
05 Dec 4.7 17:46:31 10° SSW 17:51:10 36° W 17:55:51 10° NNW visible
06 Dec 3.0 05:58:00 10° N 06:03:05 83° WNW 06:08:09 10° SSW visible
06 Dec 3.1 17:09:14 10° SSE 17:14:18 88° WSW 17:19:24 10° NNW visible
07 Dec 4.4 05:21:28 10° NNE 05:26:15 41° E 05:31:00 10° SSE visible
07 Dec 5.8 18:13:04 10° SW 18:16:45 20° W 18:20:26 10° NW visible
08 Dec 5.8 04:45:54 10° NE 04:49:14 17° E 04:52:32 10° SE visible
08 Dec 3.3 06:23:35 10° N 06:28:25 45° WNW 06:33:14 10° SW visible
08 Dec 4.2 17:34:53 10° S 17:39:44 47° W 17:44:39 10° NNW visible
09 Dec 3.2 05:46:37 10° NNE 05:51:43 76° ESE 05:56:46 10° S visible
09 Dec 6.4 18:41:38 10° W 18:42:24 10° W 18:43:10 10° W visible
10 Dec 4.9 05:10:18 10° NE 05:14:49 32° E 05:19:18 10° SSE visible
10 Dec 5.4 18:01:06 10° SSW 18:05:16 26° W 18:09:29 10° NW visible
11 Dec 6.1 04:35:21 10° ENE 04:37:44 13° E 04:40:06 10° ESE visible
11 Dec 3.0 06:12:05 10° N 06:17:05 59° WNW 06:22:02 10° SSW visible
11 Dec 3.6 17:23:19 10° S 17:28:20 62° W 17:33:22 10° NNW visible
